Location: *
(48.8489°N, 2.3218°E)
Time: 14:55:13
(UTC+00:00)

Cosmos 1707 - Pass Details

Date: 23 August 2019
Orbit: 517 x 531 km, 82.5° (Epoch: 17 September)

Event Time Altitude Azimuth Distance (km) Brightness Sun altitude
Rises 22:14:35 0° 355° (N) 2,655 7.4 -26.0°
Reaches altitude 10° 22:16:47 10° 1° (N) 1,763 6.2 -26.2°
Enters shadow 22:19:10 32° 24° (NNE) 914 4.2 -26.4°
